Wetbulb
59.03 59.77 60.28 60.27 60.31 60.34 60.34 60.38 60.33 60.12 59.68 58.97 59.07 59.29 59.67 59.85 59.43 57.19 52.13 56.86 59.47 61.83 60.76 58.41 57.46 56.86 56.92 54.14 54.91 55.14 45.01 41.56 43.62 44.52 47.53 53.40 55.52 59.55 61.94 62.35 64.59 65.12 64.86 66.16 67.12
58.40 59.26 59.65 60.03 60.04 60.03 60.04 60.22 60.20 60.20 60.27 60.17 59.56 59.25 60.32 59.70 55.52 52.68 57.08 60.73 61.09 61.16 56.83 54.87 52.87 54.57 51.81 51.89 52.02 49.15 44.03 43.67 47.47 48.65 49.54 52.47 55.46 57.49 57.90 60.13 62.24 63.41 66.03 66.61 66.40
58.00 58.57 59.17 59.41 59.68 59.83 59.79 59.79 59.89 60.00 60.07 60.39 60.46 60.54 60.30 57.59 51.88 51.05 58.95 60.29 60.44 59.60 57.46 56.66 55.51 53.26 49.38 50.59 49.82 48.93 44.50 48.00 47.33 50.25 53.10 52.66 54.28 57.91 57.31 56.77 61.39 62.51 64.23 65.02 64.92
57.80 57.91 58.41 58.82 58.98 59.27 59.55 59.45 59.48 59.52 59.67 59.88 60.09 60.49 59.96 56.04 42.41 54.26 58.82 59.18 58.92 59.19 56.13 54.33 52.53 49.13 47.26 45.24 50.21 45.41 48.63 48.62 48.60 50.80 51.49 50.62 54.52 54.79 56.53 58.56 62.31 65.21 66.00 64.60 63.89
57.65 57.49 57.44 57.98 58.16 58.52 58.90 59.15 59.22 59.37 59.24 59.14 59.42 60.00 56.28 50.71 50.03 57.26 58.11 58.04 57.56 56.87 53.22 51.86 49.90 48.99 45.44 46.70 47.84 46.51 46.47 49.42 49.77 51.10 51.38 51.91 50.20 52.28 55.46 59.36 62.84 65.16 65.19 63.69 63.75
57.35 57.07 57.14 57.23 57.61 57.95 58.33 58.67 58.95 58.92 58.61 58.71 58.84 59.09 53.46 46.23 56.47 58.40 56.81 56.80 55.96 55.07 52.91 52.58 49.91 51.09 47.06 46.29 45.85 47.45 47.28 47.51 49.33 49.04 51.33 48.99 48.93 50.73 53.41 58.20 61.14 63.76 63.39 63.58 63.17
57.35 56.58 56.13 56.87 57.30 57.63 57.92 58.24 58.35 58.25 58.18 58.54 58.82 56.26 51.37 50.04 56.89 58.12 56.31 55.75 56.22 54.79 51.85 53.52 52.07 49.20 48.12 45.38 49.68 47.67 43.86 45.99 47.65 48.73 48.17 50.71 46.27 46.88 51.94 56.29 58.54 62.03 62.57 63.87 63.38
56.93 56.06 55.88 55.89 56.93 57.28 57.49 57.67 57.67 57.72 58.19 58.65 58.66 54.75 49.17 55.95 58.46 56.70 56.61 55.43 56.59 56.24 55.00 54.79 53.91 49.90 47.61 49.37 47.58 44.67 44.20 38.56 45.36 47.94 48.46 48.50 41.00 47.69 51.06 52.58 56.29 60.22 62.47 62.98 63.48
56.53 55.67 55.44 55.65 56.69 56.94 57.02 57.22 57.51 57.89 57.70 58.36 55.28 52.69 47.76 56.12 53.15 56.14 56.79 53.16 54.31 54.75 55.37 55.08 52.88 48.45 47.57 43.55 40.12 42.26 36.69 38.23 40.88 47.74 46.74 46.55 42.94 49.36 51.54 50.81 53.64 59.40 61.23 62.29 62.46
56.41 55.28 55.07 55.38 56.49 56.94 56.97 56.91 57.12 57.63 56.88 56.13 53.85 49.19 50.44 48.21 52.77 54.82 56.55 55.08 52.49 51.60 50.40 49.86 48.16 43.91 43.83 41.30 34.68 36.74 37.54 39.70 39.66 44.17 45.03 44.08 44.26 49.51 52.55 52.99 53.33 57.28 59.39 61.36 61.17
56.38 55.39 55.39 55.71 56.40 56.49 55.59 54.26 51.48 50.10 51.30 47.36 47.43 47.07 48.75 53.00 55.19 53.19 54.79 53.11 52.73 49.79 42.36 46.25 41.21 37.91 40.10 41.73 42.60 41.39 39.38 38.93 42.11 45.48 42.99 42.28 43.82 46.58 50.67 53.00 54.36 56.23 58.08 59.70 59.77
56.51 56.39 55.98 55.97 56.03 55.93 54.11 50.72 49.47 50.62 44.72 48.42 48.27 48.75 50.57 52.39 46.87 50.64 54.45 48.38 47.35 43.48 45.36 41.97 38.26 42.70 44.20 43.77 42.04 40.71 38.46 38.96 42.65 44.77 42.98 42.00 41.58 46.15 49.36 50.84 54.21 56.31 58.03 58.68 60.35
56.08 56.21 55.99 55.67 55.33 55.21 51.71 49.99 53.79 53.00 45.57 46.10 48.23 46.77 48.11 50.22 46.21 46.89 50.79 48.74 45.78 43.26 42.84 39.09 40.33 44.63 42.55 42.04 39.96 39.95 38.94 39.27 38.51 42.43 43.81 41.79 39.64 42.39 47.43 50.48 54.76 57.30 59.15 59.63 60.27
55.63 56.10 55.56 54.77 52.65 52.71 50.30 52.38 54.00 53.21 42.44 42.59 43.60 47.00 48.24 48.56 44.50 50.09 51.85 47.55 44.76 41.69 42.07 41.92 44.57 42.30 41.05 39.88 41.39 36.32 42.80 42.08 40.38 39.13 34.33 41.91 32.12 40.01 43.83 47.64 51.84 54.83 57.21 58.98 57.26
55.16 55.77 54.69 51.79 52.62 50.15 50.44 53.57 53.76 49.56 34.64 41.95 43.35 50.21 48.25 44.80 45.39 46.59 51.65 47.41 41.34 41.86 41.62 39.91 40.89 41.52 38.82 40.49 43.14 38.89 41.93 40.09 41.56 39.61 38.82 38.06 35.53 40.13 43.01 44.33 48.52 53.08 56.10 57.61 58.06
54.75 55.20 54.04 53.31 54.68 51.72 53.39 53.32 49.76 41.01 33.59 38.22 43.64 43.40 43.26 44.52 44.36 45.63 45.42 47.73 45.85 41.27 42.46 41.72 44.65 42.79 42.41 43.68 44.45 44.36 41.30 40.67 41.04 39.36 31.88 36.98 35.62 36.97 41.14 44.10 48.22 53.07 55.70 56.55 56.96
54.56 54.22 53.07 53.07 50.88 53.51 52.87 50.39 42.30 38.12 39.96 38.79 39.85 42.11 41.72 40.88 41.81 42.11 41.50 41.37 39.24 36.20 37.90 39.71 40.97 42.81 42.55 40.51 43.22 40.92 37.90 32.53 30.77 31.11 29.27 38.21 35.83 39.71 45.53 46.90 48.66 51.83 54.90 56.06 56.78
54.12 52.39 52.43 52.64 54.64 53.37 51.71 46.51 34.99 37.94 38.13 41.08 40.31 41.27 38.48 40.29 41.13 40.82 40.08 38.82 41.00 39.64 37.47 35.69 34.67 39.47 42.80 40.72 38.96 40.01 39.57 32.98 25.74 28.15 30.45 35.61 32.69 38.92 45.64 45.99 46.63 50.47 54.80 56.77 56.62
53.69 54.93 54.17 53.58 53.12 52.90 49.02 41.59 40.35 39.29 40.32 39.18 40.61 37.33 38.89 39.24 38.63 39.64 39.79 38.82 39.69 40.97 35.76 35.33 35.11 40.46 41.26 42.12 41.66 39.95 36.38 40.77 35.03 35.18 32.49 35.86 39.82 41.39 43.16 43.85 44.88 46.03 47.37 51.75 54.68
51.38 51.27 52.59 52.71 52.52 51.05 45.67 41.04 40.25 41.30 41.20 40.40 36.39 37.84 35.95 37.98 37.00 38.08 38.34 40.57 38.77 40.98 42.28 39.20 33.60 38.61 40.24 41.68 42.19 39.80 41.47 35.90 37.01 28.39 27.14 33.47 35.30 39.90 38.16 41.98 43.58 43.95 45.90 49.05 52.87
51.27 46.14 51.24 52.85 51.68 47.77 42.70 42.90 40.93 42.78 42.56 39.63 38.66 37.09 37.84 36.64 37.68 37.69 37.58 39.76 40.73 40.49 41.79 39.92 37.44 36.98 39.01 37.53 38.62 37.86 37.56 37.65 37.34 35.82 30.51 29.89 34.98 42.26 40.67 43.52 43.17 44.45 46.84 48.88 50.84
49.79 42.43 51.38 52.28 44.72 45.43 42.32 42.13 41.47 41.35 42.59 41.33 40.33 39.53 37.88 37.89 37.30 37.76 36.96 39.19 42.16 41.92 37.81 40.32 37.92 34.51 37.41 40.55 40.64 39.38 38.24 37.99 34.59 33.45 35.19 33.60 34.53 40.94 42.53 43.56 44.75 45.02 46.95 49.02 49.83
46.76 46.47 51.69 50.39 38.96 41.81 43.23 40.32 41.36 40.25 41.06 40.17 39.54 40.49 40.40 37.73 35.38 38.85 39.76 42.46 42.44 40.83 38.89 40.05 36.86 32.46 35.12 37.70 39.59 36.69 38.60 38.42 38.17 37.25 33.11 31.50 35.02 40.60 41.50 42.72 44.81 45.02 46.61 47.69 48.43
45.50 41.47 45.86 46.45 46.73 42.67 41.76 40.81 39.80 42.07 41.20 41.71 40.68 41.01 38.60 36.99 39.79 37.65 38.32 41.29 42.72 41.69 40.91 40.32 37.60 34.63 32.19 34.23 36.13 34.86 36.69 37.28 36.69 33.18 34.68 34.98 36.77 37.99 40.37 41.75 44.05 45.11 46.50 46.96 46.83
45.27 43.11 43.02 39.53 42.12 42.65 42.94 42.21 38.88 37.94 41.00 41.96 40.08 39.73 38.81 36.38 36.87 36.26 39.22 39.84 41.50 42.01 41.22 39.39 34.61 35.16 35.38 36.91 36.77 35.15 35.66 36.46 34.05 35.31 32.16 36.01 34.79 39.22 41.62 42.64 44.40 45.82 46.37 45.68 44.86
41.66 40.81 44.22 41.81 42.05 40.35 40.47 39.89 39.42 40.11 41.13 39.10 38.77 41.89 40.89 37.84 39.53 37.46 39.25 39.20 38.86 39.79 39.34 39.95 34.93 35.64 34.40 36.00 35.08 32.84 35.76 36.53 36.39 36.51 36.45 36.29 35.29 41.74 44.29 44.90 43.66 43.96 44.04 43.21 43.02
43.73 44.12 40.00 39.70 39.95 39.94 39.31 39.53 39.32 41.75 42.76 43.67 42.28 41.59 39.09 40.94 43.66 43.09 43.23 41.48 41.46 39.78 38.29 37.58 36.15 34.49 31.84 34.74 34.62 32.99 36.98 37.03 36.45 37.54 37.45 34.27 38.90 42.07 40.45 40.93 41.92 42.56 43.49 42.75 42.55
MSLP
1021.48 1021.12 1020.80 1020.56 1020.36 1020.11 1019.85 1019.62 1019.33 1019.06 1018.89 1018.60 1018.29 1018.04 1017.82 1017.62 1017.28 1016.62 1016.02 1016.74 1016.31 1015.94 1015.88 1015.25 1014.84 1014.41 1014.34 1014.06 1014.23 1013.10 1011.60 1009.55 1008.25 1006.89 1005.57 1004.95 1005.05 1005.62 1005.51 1005.50 1006.05 1006.91 1007.04 1008.14 1010.94
1021.53 1021.16 1020.86 1020.57 1020.35 1020.15 1019.93 1019.69 1019.42 1019.14 1018.83 1018.56 1018.24 1018.03 1017.76 1017.55 1016.84 1016.19 1016.80 1016.58 1016.29 1016.06 1015.64 1015.07 1014.44 1014.26 1014.22 1013.95 1014.22 1013.49 1011.68 1009.94 1008.65 1007.49 1007.13 1006.09 1005.79 1005.83 1006.40 1005.65 1006.16 1007.46 1008.35 1009.85 1011.12
1021.49 1021.21 1020.88 1020.61 1020.37 1020.13 1019.90 1019.63 1019.38 1019.15 1018.86 1018.56 1018.20 1017.96 1017.64 1017.43 1016.55 1015.93 1016.65 1016.55 1016.35 1016.16 1015.72 1015.39 1014.88 1014.62 1014.30 1014.20 1013.99 1013.16 1011.92 1010.52 1009.44 1009.16 1008.42 1007.67 1006.87 1006.41 1006.08 1005.61 1005.81 1006.97 1008.64 1010.34 1011.25
1021.39 1021.09 1020.85 1020.58 1020.30 1020.03 1019.78 1019.57 1019.34 1019.06 1018.81 1018.54 1018.22 1017.94 1017.59 1016.79 1016.20 1016.15 1016.64 1016.49 1016.32 1016.15 1015.67 1015.24 1014.80 1014.62 1014.21 1013.82 1013.57 1013.29 1012.44 1011.65 1010.44 1010.12 1010.03 1009.02 1007.91 1007.04 1007.01 1006.22 1006.11 1006.08 1008.58 1010.22 1011.18
1021.41 1021.10 1020.80 1020.53 1020.21 1019.87 1019.61 1019.42 1019.19 1018.89 1018.62 1018.48 1018.26 1017.95 1017.37 1016.35 1016.00 1016.51 1016.70 1016.41 1016.10 1015.95 1015.48 1015.12 1014.79 1014.31 1014.08 1013.89 1013.82 1013.28 1013.01 1012.01 1011.29 1011.03 1010.53 1009.62 1009.18 1008.15 1007.07 1007.21 1007.11 1007.09 1008.89 1010.23 1011.05
1021.32 1021.02 1020.70 1020.42 1020.07 1019.75 1019.42 1019.18 1018.87 1018.66 1018.42 1018.29 1018.23 1017.97 1017.24 1016.34 1016.39 1016.48 1016.61 1016.33 1016.10 1015.73 1015.37 1015.22 1015.17 1015.05 1014.62 1014.27 1013.92 1013.50 1013.27 1012.88 1012.11 1011.31 1010.93 1010.14 1009.16 1008.38 1007.61 1007.05 1007.47 1007.71 1009.28 1010.19 1010.90
1021.29 1020.97 1020.60 1020.26 1019.90 1019.58 1019.28 1018.98 1018.59 1018.40 1018.21 1018.00 1018.06 1017.57 1016.96 1016.44 1016.40 1016.59 1016.67 1016.35 1016.19 1015.88 1015.31 1015.48 1015.61 1015.39 1015.11 1014.32 1013.93 1013.88 1013.53 1013.07 1012.24 1011.29 1010.81 1010.37 1009.29 1007.91 1007.80 1006.96 1007.50 1008.18 1009.50 1010.11 1010.84
1021.35 1020.93 1020.49 1020.09 1019.67 1019.32 1019.06 1018.76 1018.36 1018.14 1017.89 1017.67 1017.86 1017.22 1016.22 1016.35 1016.29 1016.34 1016.43 1016.20 1016.06 1016.11 1015.92 1015.68 1015.74 1015.70 1015.30 1014.78 1014.02 1013.67 1013.63 1012.73 1011.43 1011.03 1010.69 1010.51 1008.31 1007.81 1007.53 1007.02 1007.44 1008.57 1009.51 1010.05 1010.73
1021.33 1020.89 1020.42 1019.97 1019.52 1019.07 1018.66 1018.33 1017.94 1017.74 1017.53 1017.57 1017.54 1016.98 1015.94 1016.61 1016.21 1016.20 1016.45 1016.03 1015.90 1015.85 1015.91 1015.76 1015.75 1015.04 1015.21 1014.60 1014.19 1013.62 1012.83 1012.36 1011.73 1010.32 1010.30 1010.12 1008.42 1006.88 1006.97 1006.86 1007.33 1008.28 1009.10 1009.91 1010.63
1021.27 1020.81 1020.41 1019.93 1019.32 1018.89 1018.40 1017.82 1017.46 1017.43 1017.17 1016.98 1016.81 1016.94 1016.38 1016.06 1016.05 1016.07 1016.16 1016.29 1015.89 1015.62 1015.63 1015.52 1015.19 1014.29 1013.86 1014.19 1013.26 1013.01 1012.31 1011.52 1010.79 1010.17 1010.10 1009.52 1008.65 1007.30 1007.59 1007.54 1007.26 1007.49 1008.89 1009.90 1010.64
1021.32 1020.72 1020.18 1019.68 1019.21 1018.76 1018.04 1017.44 1017.51 1017.16 1016.60 1015.97 1015.99 1015.69 1015.59 1016.09 1016.12 1015.82 1015.86 1015.81 1015.62 1015.45 1015.19 1014.89 1014.59 1013.97 1013.48 1013.62 1013.17 1012.56 1012.28 1011.37 1010.51 1010.04 1009.96 1009.46 1008.69 1007.99 1007.38 1007.78 1007.53 1007.28 1008.64 1010.04 1010.83
1021.30 1020.67 1020.06 1019.41 1019.01 1018.61 1018.23 1017.37 1018.14 1018.55 1016.74 1015.87 1015.83 1015.85 1015.73 1015.86 1015.53 1015.37 1015.93 1015.59 1014.95 1014.47 1014.61 1014.99 1014.44 1013.70 1013.77 1013.43 1013.22 1012.82 1012.18 1011.28 1010.61 1010.19 1010.03 1009.06 1008.54 1008.01 1007.30 1007.41 1007.31 1007.39 1008.58 1009.99 1010.48
1021.35 1020.64 1019.97 1019.39 1018.70 1018.39 1018.44 1018.87 1018.88 1018.56 1017.14 1015.70 1015.43 1015.43 1015.53 1015.84 1015.14 1014.85 1015.62 1015.07 1014.58 1014.05 1013.85 1014.19 1014.29 1014.00 1013.85 1013.14 1012.92 1012.42 1011.87 1011.31 1010.75 1010.15 1009.82 1009.09 1008.31 1007.97 1007.20 1007.40 1007.49 1007.20 1008.80 1009.86 1010.34
1021.41 1020.74 1019.85 1019.09 1019.15 1018.72 1018.66 1019.26 1019.18 1018.78 1017.17 1015.66 1015.16 1015.19 1015.41 1015.38 1015.00 1015.05 1015.27 1015.45 1014.43 1013.85 1013.55 1013.48 1013.89 1013.86 1013.54 1012.96 1012.68 1012.45 1011.74 1011.49 1010.85 1010.09 1008.93 1008.77 1007.77 1007.24 1007.04 1006.98 1007.40 1007.85 1008.96 1009.80 1010.79
1021.37 1020.73 1020.09 1019.28 1019.00 1018.73 1019.53 1019.25 1019.11 1018.84 1017.39 1015.89 1015.05 1015.02 1014.95 1015.12 1014.77 1014.84 1015.26 1015.08 1014.39 1013.78 1013.74 1012.63 1012.96 1013.14 1013.38 1012.84 1012.53 1012.47 1012.08 1011.54 1010.89 1010.10 1009.25 1008.57 1008.10 1006.00 1006.47 1006.40 1006.97 1007.55 1008.62 1009.76 1010.95
1021.29 1020.59 1020.07 1019.31 1018.92 1019.40 1019.23 1019.22 1018.97 1018.37 1016.59 1015.53 1014.89 1014.83 1014.43 1014.28 1014.15 1014.36 1014.83 1014.99 1014.35 1013.93 1013.24 1012.76 1013.09 1013.02 1012.65 1012.61 1012.66 1012.50 1011.76 1011.32 1010.89 1010.50 1009.76 1008.25 1007.89 1006.12 1005.74 1006.02 1006.57 1007.08 1008.20 1009.30 1010.52
1021.19 1020.46 1019.92 1019.38 1019.01 1019.32 1019.11 1018.48 1018.17 1016.94 1016.10 1015.42 1014.85 1014.59 1014.35 1013.74 1013.66 1013.90 1013.81 1013.66 1013.66 1013.43 1012.37 1012.37 1012.38 1012.61 1013.02 1012.49 1012.31 1012.31 1011.78 1011.16 1010.83 1010.43 1009.61 1008.56 1008.07 1006.21 1005.91 1006.06 1006.21 1007.02 1007.86 1009.10 1010.19
1020.99 1020.40 1019.76 1019.63 1019.34 1019.04 1018.68 1017.65 1017.11 1015.99 1015.40 1015.43 1015.16 1014.53 1014.14 1013.82 1013.27 1013.41 1013.25 1012.94 1013.55 1013.50 1012.70 1011.95 1011.69 1012.09 1012.27 1012.18 1012.07 1011.68 1011.39 1011.08 1010.22 1009.51 1009.41 1009.31 1007.95 1006.80 1006.96 1007.39 1007.59 1007.42 1008.20 1009.14 1010.06
1020.59 1019.47 1019.28 1019.15 1019.50 1019.15 1017.93 1017.03 1015.97 1015.78 1015.95 1015.64 1014.87 1014.41 1013.55 1013.82 1013.93 1012.98 1012.61 1012.72 1013.22 1013.51 1013.22 1012.25 1011.68 1012.23 1012.34 1012.12 1011.95 1011.16 1011.28 1011.06 1010.49 1009.57 1008.95 1008.17 1007.66 1007.90 1008.11 1008.38 1008.47 1008.70 1009.21 1009.74 1010.64
1020.78 1019.68 1018.57 1019.40 1019.43 1018.81 1017.52 1016.24 1015.58 1015.69 1016.00 1016.07 1015.15 1014.66 1013.78 1013.32 1013.52 1012.88 1012.27 1012.86 1013.25 1013.74 1013.95 1013.10 1012.51 1012.00 1012.23 1012.41 1011.77 1011.38 1011.10 1010.64 1010.21 1009.19 1008.07 1007.38 1007.42 1007.61 1008.18 1008.25 1008.68 1009.16 1009.61 1010.21 1011.12
1020.81 1019.41 1019.19 1019.27 1019.33 1018.21 1016.85 1015.78 1015.38 1015.54 1015.68 1015.87 1015.47 1014.84 1014.16 1013.88 1013.60 1013.00 1012.60 1013.18 1013.50 1013.80 1014.02 1013.67 1013.18 1012.11 1012.04 1011.56 1010.79 1011.32 1010.59 1010.30 1009.83 1009.13 1008.21 1007.10 1007.27 1007.65 1008.13 1008.37 1008.79 1009.14 1009.66 1010.69 1011.69
1021.08 1019.29 1019.03 1019.31 1018.62 1017.28 1015.94 1015.33 1015.63 1015.50 1015.84 1015.62 1015.64 1015.15 1014.44 1014.00 1013.61 1013.26 1012.94 1013.14 1013.97 1014.11 1013.84 1013.75 1013.21 1011.78 1010.72 1010.94 1011.19 1011.05 1010.48 1010.14 1009.38 1008.55 1008.26 1008.18 1008.12 1008.54 1008.78 1009.07 1009.20 1009.65 1010.30 1011.08 1011.94
1021.45 1019.65 1019.04 1018.97 1017.55 1016.16 1015.25 1015.18 1015.07 1015.15 1015.23 1015.14 1014.92 1014.70 1014.64 1014.26 1013.86 1013.17 1013.14 1013.61 1014.19 1014.49 1014.16 1013.96 1013.15 1011.77 1010.41 1011.14 1011.14 1010.79 1010.20 1010.24 1009.87 1009.32 1008.33 1007.98 1007.71 1008.69 1009.33 1009.52 1009.65 1010.04 1010.68 1011.45 1012.18
1022.52 1019.70 1018.62 1018.51 1017.00 1016.14 1015.02 1014.45 1014.41 1014.61 1014.69 1014.79 1014.37 1014.44 1014.40 1013.93 1013.64 1013.11 1013.19 1013.59 1014.09 1014.46 1014.80 1014.74 1013.36 1012.18 1011.17 1010.80 1011.05 1010.41 1010.22 1010.29 1009.96 1009.21 1007.87 1007.45 1007.09 1008.32 1009.08 1009.48 1009.92 1010.42 1011.08 1011.76 1012.37
1022.87 1020.11 1019.26 1017.70 1016.84 1016.37 1015.38 1014.44 1013.96 1014.01 1014.54 1014.40 1014.04 1013.83 1013.42 1013.18 1013.04 1013.00 1012.72 1013.33 1014.10 1014.39 1014.64 1014.55 1013.29 1012.40 1011.67 1010.96 1010.78 1010.58 1010.13 1009.97 1009.74 1009.16 1008.47 1007.29 1007.65 1007.63 1008.59 1009.48 1010.12 1010.84 1011.48 1012.15 1012.84
1023.21 1022.11 1019.95 1018.94 1017.91 1016.76 1015.80 1014.64 1014.10 1013.66 1013.45 1013.55 1013.31 1012.52 1013.08 1012.58 1011.93 1011.83 1012.28 1012.51 1012.69 1014.19 1014.21 1014.15 1013.27 1012.55 1011.25 1010.78 1010.75 1010.36 1009.91 1009.67 1009.33 1008.98 1008.39 1008.06 1007.75 1007.87 1008.68 1009.67 1010.74 1011.38 1012.11 1012.72 1013.38
1023.98 1023.40 1022.63 1019.99 1018.75 1017.46 1015.80 1014.67 1014.04 1014.11 1012.96 1012.28 1012.54 1012.45 1012.49 1011.99 1012.01 1012.13 1012.29 1012.50 1012.69 1012.66 1013.39 1013.60 1013.17 1012.58 1011.22 1010.86 1010.44 1009.44 1008.74 1008.89 1008.91 1008.62 1008.38 1007.92 1007.72 1008.14 1009.37 1010.17 1010.77 1011.52 1012.17 1012.85 1013.63
Wind_Speed
11 12 11 11 11 11 11 11 10 9 9 9 9 11 12 12 13 9 3 9 12 13 10 7 7 8 7 11 4 10 13 14 20 23 14 15 17 14 9 5 8 6 4 16 20
12 12 12 12 11 12 12 12 12 10 10 10 10 11 12 10 10 2 5 10 12 11 9 8 8 8 9 10 6 9 13 18 15 16 13 14 12 16 9 12 10 8 8 22 20
12 13 13 13 12 12 12 12 13 13 12 12 11 11 11 9 8 6 7 10 10 8 8 9 8 8 13 9 10 8 12 14 7 11 11 12 10 13 10 17 14 15 18 19 18
13 12 13 13 13 13 13 12 12 13 13 13 12 11 12 10 8 8 8 8 6 7 7 7 6 7 7 11 10 9 16 12 7 5 11 11 10 11 14 5 5 12 20 18 17
15 14 14 14 14 13 13 13 13 13 13 13 12 9 9 10 7 6 7 5 4 4 4 7 9 7 8 4 8 14 3 14 12 4 12 12 12 13 14 9 1 5 18 18 17
16 15 15 14 14 14 14 14 14 14 13 13 11 7 7 11 3 8 6 4 4 5 2 4 6 7 7 5 7 3 10 7 13 15 11 12 15 13 12 11 4 11 15 16 17
18 16 15 15 14 15 15 15 15 14 15 11 8 6 7 6 4 6 4 4 4 5 3 1 4 5 3 6 6 5 5 6 13 18 13 8 16 19 15 17 10 9 13 16 17
19 18 16 15 15 14 15 16 17 13 12 5 6 4 5 1 4 6 4 4 2 3 5 1 2 4 5 7 5 8 5 2 8 17 16 9 16 18 18 15 12 10 13 15 17
20 19 16 16 17 15 15 16 16 11 4 6 5 5 2 2 2 4 4 6 2 2 4 4 5 7 3 4 1 5 5 10 8 17 14 14 11 11 14 14 15 14 15 12 13
21 19 18 17 17 16 17 15 1 7 4 5 4 6 4 4 1 1 2 5 4 2 4 7 7 6 6 6 3 4 10 7 10 10 19 15 17 6 6 13 16 15 14 11 12
21 19 17 17 17 16 11 3 5 6 5 5 7 5 3 1 3 5 2 5 7 6 3 4 7 6 2 2 6 2 7 9 4 5 11 20 15 16 5 6 11 10 15 11 12
21 20 19 15 15 14 7 3 3 4 6 3 4 5 2 3 4 6 2 5 4 8 4 2 6 5 5 6 7 5 5 8 10 8 9 13 21 16 12 7 10 14 15 12 11
21 21 20 17 11 3 6 5 5 3 5 2 1 5 2 4 5 1 4 5 8 8 7 5 4 7 6 8 9 10 11 11 2 6 10 11 17 19 18 7 6 10 13 14 17
21 21 19 17 4 3 3 5 5 4 4 3 3 3 3 3 4 1 4 3 4 7 5 3 2 4 8 10 8 9 2 8 6 5 7 15 6 17 20 11 9 12 14 14 10
21 21 17 9 4 2 5 5 5 4 3 2 2 3 1 5 6 5 2 4 9 10 5 2 6 5 4 8 5 1 8 9 10 9 5 10 6 11 19 12 10 16 16 16 14
22 21 15 3 2 2 3 4 3 2 5 0 1 3 5 6 3 0 4 4 4 7 8 9 1 4 3 2 5 10 8 6 7 6 4 11 12 9 14 14 13 16 16 18 15
23 18 8 3 1 3 3 3 2 3 1 2 2 3 6 4 3 3 4 6 4 5 5 4 7 1 3 5 5 5 7 2 4 4 4 2 7 8 9 8 13 15 16 16 17
24 12 0 3 2 3 3 3 2 2 3 2 3 8 5 2 4 4 5 7 6 5 8 4 4 6 8 4 5 7 5 4 5 2 4 3 7 5 5 3 2 2 12 12 14
23 2 3 2 4 4 5 1 3 3 3 5 4 4 3 3 5 4 4 4 2 2 4 5 1 2 3 3 4 4 7 3 5 3 4 7 5 5 7 6 6 8 8 12 12
8 5 2 1 3 4 4 5 3 2 1 2 4 1 4 2 4 3 2 3 2 1 2 3 6 2 2 3 7 7 3 4 3 5 5 6 6 3 7 9 7 10 12 12 12
5 5 4 1 2 4 4 6 4 5 6 4 4 4 6 5 4 5 4 3 2 2 3 3 3 3 2 7 5 4 4 6 4 4 6 6 3 3 9 6 7 8 11 13 14
5 5 4 2 4 3 4 5 1 5 5 5 4 6 5 2 5 5 4 2 2 1 3 1 5 6 8 5 1 4 6 6 8 3 4 4 2 1 4 5 7 9 10 12 13
5 6 3 3 6 7 4 5 4 7 7 8 7 8 2 4 5 6 4 3 3 2 3 2 4 5 4 5 3 6 6 8 6 4 9 8 0 4 5 7 10 12 12 12 12
5 5 4 4 4 7 8 10 7 5 5 6 3 5 6 6 10 4 5 3 5 4 2 2 5 8 7 6 4 5 5 7 8 4 7 9 7 8 7 11 12 14 14 14 14
3 5 4 4 5 11 7 6 8 6 7 9 5 14 9 6 5 8 7 5 6 6 4 4 6 2 11 14 9 12 12 9 12 13 6 5 6 6 9 12 12 12 14 14 13
3 4 5 11 11 11 10 10 14 9 8 7 12 7 14 11 10 5 6 6 5 7 5 5 4 3 7 0 6 13 14 14 14 15 15 15 14 3 9 11 11 12 12 13 13
5 2 4 4 11 15 15 16 13 9 11 15 12 10 11 18 14 5 5 1 2 7 9 4 3 2 5 3 10 11 5 12 8 7 12 10 4 11 11 12 14 14 15 15 15
Wind_Direction
340 339 346 346 345 344 344 343 339 341 335 331 331 328 326 325 301 250 338 342 322 331 315 293 267 245 249 243 238 245 241 239 234 238 247 208 206 222 280 159 166 176 34 129 144
338 336 335 337 339 338 340 339 333 329 323 317 320 322 324 330 306 328 38 333 332 335 301 292 275 220 230 228 204 225 227 239 242 244 232 217 226 214 220 218 174 149 115 127 145
342 334 333 329 330 330 332 333 330 327 321 314 314 314 317 310 281 7 15 343 338 318 291 288 282 271 245 228 208 215 244 233 262 289 317 300 223 245 229 212 200 179 144 147 154
348 336 328 326 323 322 324 324 320 320 319 315 315 312 315 296 356 29 353 338 338 302 287 286 260 236 245 220 203 236 230 265 228 243 278 254 288 244 237 279 329 174 154 156 160
353 340 333 326 318 316 315 313 312 312 314 311 308 313 299 301 24 13 330 349 298 294 311 298 274 255 252 250 226 235 254 245 236 237 269 269 262 254 247 243 304 125 156 168 163
354 344 334 326 320 313 310 307 306 308 309 308 298 305 279 313 339 3 330 307 332 306 335 332 345 326 289 255 246 276 192 249 261 222 248 266 252 243 245 256 210 181 165 170 168
354 344 333 327 322 316 309 304 301 305 305 302 276 262 269 335 0 353 321 330 332 328 303 107 359 253 343 262 225 237 205 235 255 233 227 246 252 243 250 228 219 190 172 172 175
353 345 335 326 322 319 311 304 299 299 296 283 232 246 291 80 343 311 317 302 5 306 303 233 193 258 255 291 234 204 211 226 252 222 216 228 248 219 227 230 227 195 181 179 175
352 346 339 328 323 318 311 304 292 285 247 166 206 261 293 143 271 48 312 324 332 250 268 226 252 254 145 223 303 222 235 204 247 202 209 214 239 245 205 216 233 191 197 183 179
352 350 341 329 326 320 314 302 105 172 187 205 259 244 155 344 346 199 214 302 303 282 237 229 239 255 218 216 266 193 231 219 228 191 211 220 242 174 188 235 225 197 199 176 184
348 349 341 331 326 324 316 232 213 187 206 278 323 293 327 6 214 201 211 268 246 246 281 269 282 261 286 330 336 229 259 265 260 188 224 223 229 241 209 218 241 224 196 176 191
343 343 339 331 326 320 284 350 36 358 298 217 275 274 277 286 285 208 210 259 249 308 316 270 266 289 306 270 248 253 275 260 257 250 220 234 227 238 231 257 223 218 174 175 150
339 341 338 329 322 310 17 27 333 301 261 181 222 280 298 218 291 318 203 312 286 291 327 298 313 275 251 255 237 238 252 272 288 200 232 254 226 225 242 233 220 185 170 168 162
337 339 337 323 295 350 56 354 316 313 273 169 178 142 187 260 242 88 210 299 255 299 326 295 89 268 276 265 230 288 336 272 269 254 238 206 229 219 227 208 209 183 169 157 142
337 337 333 349 327 352 350 327 320 254 330 154 154 91 209 247 333 150 158 213 277 308 270 62 224 224 237 271 254 299 333 282 257 262 304 203 248 232 207 200 213 186 184 171 161
336 335 319 242 218 37 319 307 259 267 263 313 273 267 264 194 208 220 225 217 280 290 247 283 355 255 307 240 240 314 289 240 241 255 242 226 213 275 186 215 204 191 185 169 152
336 333 304 287 8 326 292 235 302 251 104 283 302 299 305 257 260 235 259 242 283 306 266 186 223 170 268 266 205 245 47 257 225 195 302 133 199 255 162 208 221 186 184 174 177
331 322 286 335 284 258 236 221 265 339 275 75 285 288 263 334 198 266 268 267 189 254 290 292 241 199 156 233 330 232 232 288 314 328 172 169 223 240 113 116 22 128 173 171 172
317 276 252 149 278 264 257 280 279 351 2 311 278 269 218 222 285 286 233 296 358 325 299 320 174 145 231 269 243 136 236 347 297 225 264 181 216 154 166 164 173 176 172 170 175
321 297 216 34 288 254 266 240 232 152 184 271 279 251 299 341 277 261 276 104 160 217 310 11 291 168 97 289 233 257 359 261 223 290 297 188 235 210 203 180 169 174 179 163 146
280 297 87 151 258 239 236 243 233 183 179 198 293 283 258 302 274 290 299 137 179 164 235 298 238 133 205 209 295 198 238 231 299 260 302 311 148 96 180 165 183 172 161 153 153
297 262 110 192 258 227 237 212 145 192 180 200 235 260 257 269 267 263 266 285 125 243 245 106 303 274 243 109 251 269 284 301 272 268 254 298 287 74 138 155 150 146 145 148 145
291 279 123 234 247 222 208 246 236 194 207 182 212 217 199 248 260 235 260 104 177 259 319 121 222 289 185 187 182 248 221 254 278 286 271 280 47 156 149 164 150 148 145 141 137
290 283 181 214 273 283 262 251 231 207 230 221 230 188 191 229 226 261 241 175 177 218 69 289 269 256 276 332 318 250 231 226 237 255 278 250 295 161 178 169 162 154 154 149 149
232 270 17 253 239 253 267 289 224 208 225 208 215 225 198 229 211 234 221 208 194 161 190 244 274 288 273 274 264 268 269 234 220 239 264 341 322 347 178 176 164 158 151 147 145
285 314 300 282 287 273 250 253 262 255 189 219 234 222 220 231 227 219 213 209 200 172 212 183 268 301 284 35 254 261 259 250 244 247 262 276 286 239 145 150 154 157 154 153 151
9 352 295 277 272 270 256 253 266 280 238 249 233 251 226 238 256 287 277 10 256 179 193 206 249 269 271 341 306 270 294 227 229 241 234 249 308 149 162 167 171 165 166 158 153